Regional Weather Roundup
Issued by NWS

Home | Current Version | Previous Version | Graphics & Text | Print | Product List | Glossary On
Versions: 1 2 3 4 5 6 7 8 9 10 11 12 13 14 15 16 17 18 19 20 21 22 23 24 25 26 27 28 29 30 31 32 33 34 35 36 37 38 39 40 41 42 43 44 45 46 47 48 49 50
000
ASUS43 KBIS 211820
RWRND

NORTH DAKOTA REGIONAL WEATHER ROUNDUP
NATIONAL WEATHER SERVICE BISMARCK ND
1200 PM CST SUN DEC 21 2014

NOTE: "FAIR" INDICATES FEW OR NO CLOUDS BELOW 12,000 FEET WITH NO
SIGNIFICANT WEATHER AND/OR OBSTRUCTIONS TO VISIBILITY.


NDZ001>003-009>011-017-211900-
NORTHWEST NORTH DAKOTA

CITY           SKY/WX    TMP DP  RH WIND       PRES   REMARKS
WILLISTON      CLOUDY    29  25  85 CALM      29.40F
6HR MIN TEMP:  11; 6HR MAX TEMP:  29;

MINOT          SUNNY     28  24  85 E5        29.46F
MINOT AFB      SUNNY     26  26 100 SE10      29.46F WCI  16
$$

NDZ018>021-031>035-040>046-211900-
SOUTHWEST NORTH DAKOTA

CITY           SKY/WX    TMP DP  RH WIND       PRES   REMARKS
BISMARCK       SUNNY     34  29  82 SE9       29.51F
6HR MIN TEMP:  17; 6HR MAX TEMP:  34;

DICKINSON      CLOUDY    38  27  64 S7        29.40F
GARRISON         N/A     31  27  85 E7        29.46F
6HR MIN TEMP:  17; 6HR MAX TEMP:  31;

HETTINGER ARPT MOSUNNY   37  28  70 SE9       29.42F
$$

NDZ004>008-012>016-024-026-027-054-211900-
NORTHEAST NORTH DAKOTA

CITY           SKY/WX    TMP DP  RH WIND       PRES   REMARKS
GRAND FORKS    CLOUDY    31  29  92 S15       29.66F
GRND FRKS AFB  CLOUDY    31  31 100 S15       29.65F WCI  20
DEVILS LAKE    CLOUDY    25  19  80 SE9       29.55F WCI  15
$$

NDZ022-023-025-028>030-036>039-047>053-211900-
SOUTHEAST NORTH DAKOTA

CITY           SKY/WX    TMP DP  RH WIND       PRES   REMARKS
FARGO          CLOUDY    33  29  85 S16       29.67F FOG
6HR MIN TEMP:  32; 6HR MAX TEMP:  33;

JAMESTOWN      FOG       32  29  88 SE13      29.58F VSB 1/2
$$




USA.gov is the U.S. government's official web portal to all federal, state and local government web resources and services.